| time (UTC) | temp F | wind direction | speed knots | gust knots | rain 1hr in | rain 24hr in | rain mn in | humidity % | barometer mb |
| 20260906185652 | 72 | 321 | 3.5 | 6.1 | 0.00 | 0.10 | 0.10 | 46 | 1013.7 |
| 20260906185151 | 71 | 41 | 0.9 | 1.7 | 0.00 | 0.10 | 0.10 | 48 | 1013.8 |
| 20260906184646 | 71 | 46 | 2.6 | 3.5 | 0.00 | 0.10 | 0.10 | 45 | 1013.7 |
| 20260906184141 | 70 | 132 | 6.1 | 8.7 | 0.00 | 0.10 | 0.10 | 49 | 1014.0 |
| 20260906183637 | 70 | 7 | 2.6 | 2.6 | 0.00 | 0.10 | 0.10 | 47 | 1013.9 |
| 20260906183133 | 71 | 348 | 3.5 | 3.5 | 0.00 | 0.10 | 0.10 | 46 | 1013.9 |
| 20260906182627 | 71 | 1 | 4.3 | 5.2 | 0.00 | 0.10 | 0.10 | 46 | 1014.0 |
| 20260906182124 | 71 | 18 | 4.3 | 8.7 | 0.00 | 0.10 | 0.10 | 46 | 1014.0 |
| 20260906181624 | 71 | 307 | 1.7 | 1.7 | 0.00 | 0.10 | 0.10 | 48 | 1013.9 |
| 20260906181119 | 71 | 180 | 2.6 | 3.5 | 0.00 | 0.10 | 0.10 | 48 | 1013.9 |
| 20260906180615 | 71 | 25 | 0.9 | 1.7 | 0.00 | 0.10 | 0.10 | 49 | 1014.2 |
| 20260906180109 | 71 | 357 | 1.7 | 3.5 | 0.00 | 0.10 | 0.10 | 47 | 1014.1 |
| 20260906175608 | 70 | 273 | 3.5 | 3.5 | 0.00 | 0.10 | 0.10 | 48 | 1014.1 |
| 20260906175103 | 70 | 38 | 3.5 | 3.5 | 0.00 | 0.10 | 0.10 | 48 | 1014.2 |
| 20260906174601 | 71 | 294 | 5.2 | 8.7 | 0.00 | 0.10 | 0.10 | 50 | 1014.1 |
| 20260906174056 | 70 | 282 | 1.7 | 3.5 | 0.00 | 0.10 | 0.10 | 50 | 1013.8 |
| 20260906173550 | 69 | 65 | 3.5 | 3.5 | 0.00 | 0.10 | 0.10 | 48 | 1014.1 |
| 20260906173046 | 70 | 49 | 1.7 | 1.7 | 0.00 | 0.10 | 0.10 | 53 | 1014.2 |
| 20260906172541 | 70 | 278 | 1.7 | 2.6 | 0.00 | 0.10 | 0.10 | 51 | 1014.2 |
| 20260906172036 | 70 | 71 | 1.7 | 1.7 | 0.00 | 0.10 | 0.10 | 51 | 1014.3 |
| 20260906171531 | 70 | 256 | 2.6 | 2.6 | 0.00 | 0.10 | 0.10 | 53 | 1014.6 |
| 20260906171027 | 69 | 5 | 4.3 | 5.2 | 0.00 | 0.10 | 0.10 | 53 | 1014.4 |
| 20260906170522 | 69 | 84 | 5.2 | 6.1 | 0.00 | 0.10 | 0.10 | 52 | 1014.4 |
| 20260906170021 | 70 | 292 | 3.5 | 5.2 | 0.00 | 0.10 | 0.10 | 53 | 1014.5 |
| 20260906165518 | 70 | 130 | 2.6 | 3.5 | 0.00 | 0.10 | 0.10 | 56 | 1014.3 |
| 20260906165013 | 69 | 276 | 1.7 | 2.6 | 0.00 | 0.10 | 0.10 | 57 | 1014.4 |
| 20260906164512 | 69 | 273 | 3.5 | 7.0 | 0.00 | 0.10 | 0.10 | 56 | 1014.5 |
| 20260906164009 | 69 | 324 | 1.7 | 1.7 | 0.00 | 0.10 | 0.10 | 57 | 1014.9 |
| 20260906163509 | 68 | 178 | 2.6 | 3.5 | 0.00 | 0.10 | 0.10 | 59 | 1014.7 |
| 20260906163004 | 69 | 322 | 0.9 | 1.7 | 0.00 | 0.10 | 0.10 | 57 | 1014.9 |
| 20260906162501 | 68 | 200 | 1.7 | 1.7 | 0.00 | 0.10 | 0.10 | 56 | 1015.0 |
| 20260906161956 | 68 | 284 | 0.0 | 0.9 | 0.00 | 0.10 | 0.10 | 57 | 1015.0 |
| 20260906161456 | 68 | 309 | 2.6 | 3.5 | 0.00 | 0.10 | 0.10 | 55 | 1014.9 |
| 20260906160954 | 69 | 344 | 2.6 | 3.5 | 0.00 | 0.10 | 0.10 | 54 | 1015.0 |
| 20260906160448 | 68 | 277 | 3.5 | 6.1 | 0.00 | 0.10 | 0.10 | 59 | 1015.0 |
| 20260906155947 | 67 | 334 | 3.5 | 3.5 | 0.00 | 0.10 | 0.10 | 61 | 1015.3 |
| 20260906155445 | 67 | 327 | 0.9 | 1.7 | 0.00 | 0.10 | 0.10 | 62 | 1015.2 |
| 20260906154942 | 66 | 314 | 1.7 | 2.6 | 0.00 | 0.10 | 0.10 | 64 | 1015.2 |
| 20260906154437 | 67 | 7 | 1.7 | 2.6 | 0.00 | 0.10 | 0.10 | 63 | 1015.5 |
| 20260906153935 | 67 | 200 | 0.9 | 2.6 | 0.00 | 0.10 | 0.10 | 65 | 1015.4 |
| 20260906153434 | 67 | 273 | 2.6 | 2.6 | 0.00 | 0.10 | 0.10 | 65 | 1015.4 |
| 20260906152930 | 67 | 290 | 0.9 | 0.9 | 0.00 | 0.10 | 0.10 | 68 | 1015.4 |
| 20260906152430 | 66 | 254 | 0.9 | 1.7 | 0.00 | 0.10 | 0.10 | 74 | 1015.6 |
| 20260906151929 | 67 | 261 | 3.5 | 5.2 | 0.00 | 0.10 | 0.10 | 67 | 1015.3 |
| 20260906151425 | 68 | 239 | 0.9 | 0.9 | 0.00 | 0.10 | 0.10 | 65 | 1015.4 |
| 20260906150920 | 67 | 281 | 2.6 | 3.5 | 0.00 | 0.10 | 0.10 | 65 | 1015.4 |
| 20260906150415 | 67 | 59 | 0.9 | 0.9 | 0.00 | 0.10 | 0.10 | 70 | 1015.5 |
| 20260906145915 | 66 | 336 | 0.9 | 1.7 | 0.00 | 0.10 | 0.10 | 61 | 1015.4 |
| 20260906145414 | 65 | 68 | 1.7 | 2.6 | 0.00 | 0.10 | 0.10 | 62 | 1015.5 |
| 20260906144909 | 66 | 318 | 0.9 | 1.7 | 0.00 | 0.10 | 0.10 | 61 | 1015.6 |
| 20260906144403 | 65 | 237 | 1.7 | 2.6 | 0.00 | 0.10 | 0.10 | 60 | 1015.8 |
| 20260906143859 | 65 | 7 | 3.5 | 3.5 | 0.00 | 0.10 | 0.10 | 61 | 1015.8 |
| 20260906143354 | 65 | 347 | 0.9 | 1.7 | 0.00 | 0.10 | 0.10 | 67 | 1015.8 |
| 20260906142850 | 65 | 92 | 1.7 | 2.6 | 0.00 | 0.10 | 0.10 | 65 | 1015.8 |
| 20260906142344 | 64 | 311 | 1.7 | 1.7 | 0.00 | 0.10 | 0.10 | 69 | 1015.7 |
| 20260906141844 | 64 | 78 | 2.6 | 2.6 | 0.00 | 0.10 | 0.10 | 69 | 1015.8 |
| 20260906141333 | 64 | 19 | 0.9 | 0.9 | 0.00 | 0.10 | 0.10 | 72 | 1015.9 |
| 20260906140832 | 64 | 287 | 0.9 | 1.7 | 0.00 | 0.10 | 0.10 | 69 | 1015.8 |
| 20260906140327 | 63 | 348 | 0.9 | 0.9 | 0.00 | 0.10 | 0.10 | 74 | 1015.9 |
| 20260906135825 | 64 | 27 | 4.3 | 6.1 | 0.00 | 0.10 | 0.10 | 73 | 1015.9 |
| 20260906135320 | 64 | 338 | 1.7 | 2.6 | 0.00 | 0.10 | 0.10 | 76 | 1015.6 |
| 20260906134815 | 63 | 308 | 0.9 | 0.9 | 0.00 | 0.10 | 0.10 | 79 | 1015.6 |
| 20260906134311 | 63 | 329 | 1.7 | 2.6 | 0.00 | 0.10 | 0.10 | 80 | 1015.4 |
| 20260906133806 | 62 | 234 | 0.9 | 1.7 | 0.00 | 0.10 | 0.10 | 78 | 1015.5 |
| 20260906133301 | 63 | 38 | 1.7 | 2.6 | 0.00 | 0.10 | 0.10 | 81 | 1015.5 |
| 20260906132757 | 62 | 316 | 0.0 | 0.9 | 0.00 | 0.10 | 0.10 | 88 | 1015.6 |
| 20260906132252 | 62 | 89 | 0.9 | 1.7 | 0.00 | 0.10 | 0.10 | 85 | 1015.6 |
| 20260906131747 | 61 | 351 | 0.9 | 1.7 | 0.00 | 0.10 | 0.10 | 89 | 1015.8 |
| 20260906131242 | 61 | 246 | 1.7 | 1.7 | 0.00 | 0.10 | 0.10 | 91 | 1015.6 |
| 20260906130738 | 61 | 283 | 2.6 | 5.2 | 0.00 | 0.10 | 0.10 | 91 | 1015.8 |
| 20260906130233 | 60 | 31 | 0.9 | 0.9 | 0.00 | 0.10 | 0.10 | 95 | 1015.6 |
| 20260906125731 | 59 | 328 | 1.7 | 2.6 | 0.00 | 0.10 | 0.10 | 95 | 1015.6 |
| 20260906125229 | 58 | 285 | 0.0 | 0.0 | 0.00 | 0.10 | 0.10 | 98 | 1015.6 |
| 20260906124724 | 58 | 309 | 0.9 | 0.9 | 0.00 | 0.10 | 0.10 | 97 | 1015.7 |
| 20260906124220 | 59 | 56 | 0.9 | 1.7 | 0.00 | 0.10 | 0.10 | 96 | 1015.8 |
| 20260906123718 | 58 | 124 | 0.0 | 0.9 | 0.00 | 0.10 | 0.10 | 97 | 1015.8 |
| 20260906123214 | 58 | 33 | 0.9 | 0.9 | 0.00 | 0.10 | 0.10 | 99 | 1015.9 |
| 20260906122713 | 58 | 318 | 0.0 | 0.9 | 0.00 | 0.10 | 0.10 | 99 | 1015.9 |
| 20260906122209 | 57 | 320 | 0.0 | 0.9 | 0.00 | 0.10 | 0.10 | 99 | 1015.9 |
| 20260906121705 | 57 | 8 | 0.0 | 0.9 | 0.00 | 0.10 | 0.10 | 99 | 1015.8 |
| 20260906121201 | 57 | 354 | 1.7 | 1.7 | 0.00 | 0.10 | 0.10 | 99 | 1015.9 |
| 20260906120656 | 57 | 310 | 0.0 | 0.0 | 0.00 | 0.10 | 0.10 | 99 | 1015.8 |
| 20260906120153 | 57 | 311 | 0.0 | 0.0 | 0.00 | 0.10 | 0.10 | 99 | 1015.9 |
| 20260906115648 | 57 | 320 | 0.0 | 0.0 | 0.00 | 0.10 | 0.10 | 99 | 1015.6 |
| 20260906115144 | 57 | 357 | 0.9 | 0.9 | 0.00 | 0.10 | 0.10 | 99 | 1015.7 |
| 20260906114642 | 57 | 335 | 0.0 | 0.0 | 0.00 | 0.10 | 0.10 | 99 | 1015.6 |
| 20260906114137 | 57 | 307 | 0.0 | 0.0 | 0.00 | 0.10 | 0.10 | 99 | 1015.8 |
| 20260906113632 | 56 | 338 | 0.0 | 0.0 | 0.00 | 0.10 | 0.10 | 99 | 1015.5 |
| 20260906113127 | 56 | 331 | 0.0 | 0.9 | 0.00 | 0.10 | 0.10 | 99 | 1015.6 |
| 20260906112626 | 56 | 291 | 0.0 | 0.9 | 0.00 | 0.10 | 0.10 | 99 | 1015.3 |
| 20260906112123 | 55 | 294 | 0.0 | 0.0 | 0.00 | 0.10 | 0.10 | 99 | 1015.3 |
| 20260906111622 | 55 | 318 | 0.0 | 0.0 | 0.00 | 0.10 | 0.10 | 99 | 1015.4 |
| 20260906111118 | 55 | 304 | 0.0 | 0.0 | 0.00 | 0.10 | 0.10 | 99 | 1015.3 |
| 20260906110618 | 55 | 298 | 0.0 | 0.0 | 0.00 | 0.10 | 0.10 | 99 | 1015.4 |
| 20260906110112 | 54 | 299 | 0.0 | 0.0 | 0.00 | 0.10 | 0.10 | 99 | 1015.2 |
| 20260906105607 | 54 | 292 | 0.0 | 0.0 | 0.00 | 0.10 | 0.10 | 99 | 1015.2 |
| 20260906105103 | 54 | 294 | 0.0 | 0.0 | 0.00 | 0.10 | 0.10 | 99 | 1015.0 |
| 20260906104602 | 54 | 303 | 0.0 | 0.9 | 0.00 | 0.10 | 0.10 | 99 | 1015.2 |
| 20260906104056 | 54 | 291 | 0.0 | 0.0 | 0.00 | 0.10 | 0.10 | 99 | 1015.2 |
| 20260906103554 | 54 | 303 | 0.0 | 0.0 | 0.00 | 0.10 | 0.10 | 99 | 1015.1 |
| 20260906103050 | 54 | 320 | 0.0 | 0.0 | 0.00 | 0.10 | 0.10 | 99 | 1015.2 |
| 20260906102549 | 54 | 316 | 0.0 | 0.0 | 0.17 | 0.10 | 0.10 | 99 | 1015.2 |
| 20260906102044 | 54 | 309 | 0.0 | 0.0 | 0.28 | 0.10 | 0.10 | 99 | 1015.3 |
| 20260906101539 | 55 | 305 | 0.0 | 0.9 | 0.28 | 0.08 | 0.08 | 99 | 1015.3 |
| 20260906101033 | 55 | 29 | 1.7 | 1.7 | 0.19 | 0.05 | 0.05 | 99 | 1015.2 |
| 20260906100529 | 55 | 320 | 0.0 | 0.0 | 0.12 | 0.03 | 0.03 | 99 | 1015.2 |
| 20260906100024 | 55 | 326 | 0.0 | 0.0 | 0.05 | 0.02 | 0.02 | 99 | 1015.1 |
| 20260906095519 | 55 | 320 | 0.0 | 0.0 | 0.00 | 0.01 | 0.01 | 99 | 1015.0 |
| 20260906095014 | 55 | 311 | 0.0 | 0.0 | 0.00 | 0.01 | 0.01 | 99 | 1015.0 |
| 20260906094513 | 55 | 304 | 0.0 | 0.0 | 0.07 | 0.01 | 0.01 | 99 | 1014.9 |
| 20260906094009 | 55 | 320 | 0.0 | 0.0 | 0.07 | 0.01 | 0.01 | 98 | 1014.9 |
| 20260906093505 | 55 | 318 | 0.0 | 0.0 | 0.00 | 0.00 | 0.00 | 98 | 1014.9 |
| 20260906093000 | 55 | 316 | 0.0 | 0.0 | 0.00 | 0.00 | 0.00 | 98 | 1015.1 |
| 20260906092500 | 55 | 324 | 0.0 | 0.0 | 0.00 | 0.00 | 0.00 | 98 | 1014.8 |
| 20260906091955 | 55 | 324 | 0.0 | 0.0 | 0.00 | 0.00 | 0.00 | 98 | 1015.0 |
| 20260906091450 | 55 | 305 | 0.0 | 0.0 | 0.00 | 0.00 | 0.00 | 98 | 1014.9 |
| 20260906090947 | 55 | 303 | 0.0 | 0.0 | 0.00 | 0.00 | 0.00 | 99 | 1014.7 |
| 20260906090442 | 55 | 301 | 0.0 | 0.0 | 0.00 | 0.00 | 0.00 | 99 | 1014.7 |
| 20260906085942 | 55 | 296 | 0.0 | 0.0 | 0.00 | 0.00 | 0.00 | 99 | 1014.7 |
| 20260906085441 | 55 | 299 | 0.0 | 0.0 | 0.00 | 0.00 | 0.00 | 99 | 1014.6 |
| 20260906084940 | 55 | 296 | 0.9 | 0.9 | 0.00 | 0.00 | 0.00 | 98 | 1014.5 |
| 20260906084435 | 55 | 306 | 0.0 | 0.0 | 0.00 | 0.00 | 0.00 | 97 | 1014.3 |
| 20260906083934 | 55 | 324 | 0.0 | 0.0 | 0.00 | 0.00 | 0.00 | 97 | 1014.4 |
| 20260906083430 | 55 | 345 | 0.0 | 0.0 | 0.00 | 0.00 | 0.00 | 97 | 1014.4 |
| 20260906082929 | 55 | 311 | 0.0 | 0.0 | 0.00 | 0.00 | 0.00 | 97 | 1014.3 |
| 20260906082425 | 54 | 308 | 0.0 | 0.0 | 0.00 | 0.00 | 0.00 | 98 | 1014.4 |
| 20260906081920 | 54 | 316 | 0.0 | 0.0 | 0.00 | 0.00 | 0.00 | 98 | 1014.3 |
| 20260906081415 | 54 | 301 | 0.0 | 0.0 | 0.00 | 0.00 | 0.00 | 98 | 1014.4 |
| 20260906080912 | 54 | 315 | 0.0 | 0.0 | 0.00 | 0.00 | 0.00 | 99 | 1014.4 |
| 20260906080408 | 54 | 307 | 0.0 | 0.0 | 0.00 | 0.00 | 0.00 | 99 | 1014.1 |
| 20260906075907 | 54 | 296 | 0.0 | 0.0 | 0.00 | 0.00 | 0.00 | 99 | 1014.4 |
| 20260906075402 | 54 | 295 | 0.0 | 0.0 | 0.00 | 0.00 | 0.00 | 99 | 1014.2 |
| 20260906074858 | 54 | 314 | 0.0 | 0.0 | 0.00 | 0.00 | 0.00 | 99 | 1014.1 |
| 20260906074357 | 53 | 140 | 0.9 | 0.9 | 0.00 | 0.00 | 0.00 | 99 | 1014.1 |
| 20260906073856 | 53 | 316 | 0.0 | 0.0 | 0.00 | 0.00 | 0.00 | 99 | 1014.3 |
| 20260906073351 | 53 | 306 | 0.0 | 0.0 | 0.00 | 0.00 | 0.00 | 99 | 1014.4 |
| 20260906072848 | 53 | 333 | 0.0 | 0.0 | 0.00 | 0.00 | 0.00 | 99 | 1014.4 |
| 20260906072343 | 53 | 305 | 0.0 | 0.0 | 0.00 | 0.00 | 0.00 | 99 | 1014.4 |
| 20260906071839 | 53 | 305 | 0.0 | 0.0 | 0.00 | 0.00 | 0.00 | 99 | 1014.4 |
| 20260906071334 | 53 | 301 | 0.0 | 0.0 | 0.00 | 0.00 | 0.00 | 99 | 1014.2 |
| 20260906070830 | 53 | 292 | 0.0 | 0.0 | 0.00 | 0.00 | 0.00 | 99 | 1014.2 |
| 20260906070325 | 53 | 307 | 0.0 | 0.0 | 0.00 | 0.00 | 0.00 | 99 | 1014.1 |
| 20260906065820 | 53 | 310 | 0.0 | 0.0 | 0.00 | 0.00 | 0.00 | 99 | 1014.2 |
| 20260906065315 | 53 | 315 | 0.0 | 0.0 | 0.00 | 0.00 | 0.00 | 99 | 1014.1 |
| 20260906064811 | 53 | 310 | 0.0 | 0.0 | 0.00 | 0.00 | 0.00 | 99 | 1014.1 |
| 20260906064307 | 53 | 313 | 0.0 | 0.0 | 0.00 | 0.00 | 0.00 | 99 | 1013.8 |
| 20260906063801 | 53 | 309 | 0.0 | 0.0 | 0.00 | 0.00 | 0.00 | 99 | 1013.8 |
| 20260906063257 | 52 | 315 | 0.0 | 0.0 | 0.00 | 0.00 | 0.00 | 99 | 1014.1 |
| 20260906062752 | 52 | 307 | 0.0 | 0.0 | 0.00 | 0.00 | 0.00 | 99 | 1014.0 |
| 20260906062251 | 52 | 307 | 0.0 | 0.0 | 0.00 | 0.00 | 0.00 | 99 | 1013.6 |
| 20260906061747 | 53 | 307 | 0.0 | 0.0 | 0.00 | 0.00 | 0.00 | 99 | 1013.9 |
| 20260906061243 | 53 | 309 | 0.0 | 0.0 | 0.00 | 0.00 | 0.00 | 99 | 1013.9 |
| 20260906060738 | 53 | 307 | 0.0 | 0.0 | 0.00 | 0.00 | 0.00 | 99 | 1013.9 |
| 20260906060236 | 53 | 306 | 0.0 | 0.0 | 0.00 | 0.00 | 0.00 | 99 | 1014.0 |
| 20260906055731 | 53 | 307 | 0.0 | 0.0 | 0.00 | 0.00 | 0.00 | 98 | 1013.9 |
| 20260906055226 | 54 | 309 | 0.0 | 0.0 | 0.00 | 0.00 | 0.00 | 98 | 1014.1 |
| 20260906054721 | 54 | 307 | 0.0 | 0.0 | 0.00 | 0.00 | 0.00 | 97 | 1014.1 |
| 20260906054216 | 54 | 306 | 0.0 | 0.0 | 0.00 | 0.00 | 0.00 | 97 | 1014.1 |
| 20260906053713 | 54 | 310 | 0.0 | 0.0 | 0.00 | 0.00 | 0.00 | 97 | 1014.1 |
| 20260906053208 | 54 | 311 | 0.0 | 0.0 | 0.00 | 0.00 | 0.00 | 97 | 1014.1 |
| 20260906052703 | 55 | 306 | 0.0 | 0.0 | 0.00 | 0.00 | 0.00 | 97 | 1013.8 |
| 20260906052159 | 54 | 309 | 0.0 | 0.0 | 0.00 | 0.00 | 0.00 | 96 | 1014.0 |
| 20260906051656 | 55 | 309 | 0.0 | 0.0 | 0.00 | 0.00 | 0.00 | 96 | 1014.1 |
| 20260906051155 | 55 | 302 | 0.0 | 0.0 | 0.00 | 0.00 | 0.00 | 96 | 1014.2 |
| 20260906050651 | 55 | 300 | 0.0 | 0.0 | 0.00 | 0.00 | 0.00 | 96 | 1014.0 |
| 20260906050146 | 55 | 309 | 0.0 | 0.0 | 0.00 | 0.00 | 0.00 | 95 | 1014.1 |
| 20260906045644 | 55 | 296 | 0.0 | 0.0 | 0.00 | 0.00 | 0.00 | 95 | 1014.1 |
| 20260906045140 | 54 | 310 | 0.0 | 0.0 | 0.00 | 0.00 | 0.00 | 96 | 1014.1 |
| 20260906044636 | 54 | 292 | 0.0 | 0.0 | 0.00 | 0.00 | 0.00 | 97 | 1014.1 |
| 20260906044131 | 53 | 308 | 0.0 | 0.0 | 0.00 | 0.00 | 0.00 | 98 | 1013.9 |
| 20260906043627 | 53 | 307 | 0.0 | 0.0 | 0.00 | 0.00 | 0.00 | 98 | 1013.9 |
| 20260906043122 | 53 | 310 | 0.0 | 0.0 | 0.00 | 0.00 | 0.00 | 98 | 1013.9 |
| 20260906042621 | 53 | 310 | 0.0 | 0.0 | 0.00 | 0.00 | 0.00 | 97 | 1013.9 |
| 20260906042115 | 53 | 301 | 0.0 | 0.0 | 0.00 | 0.00 | 0.00 | 97 | 1014.1 |
| 20260906041612 | 54 | 309 | 0.0 | 0.0 | 0.00 | 0.00 | 0.00 | 96 | 1014.1 |
| 20260906041106 | 54 | 309 | 0.0 | 0.0 | 0.00 | 0.00 | 0.00 | 95 | 1014.0 |
| 20260906040602 | 54 | 309 | 0.0 | 0.0 | 0.00 | 0.00 | 0.00 | 95 | 1014.1 |
| 20260906040057 | 55 | 309 | 0.0 | 0.0 | 0.00 | 0.00 | 0.00 | 94 | 1014.0 |
| 20260906035552 | 55 | 313 | 0.0 | 0.0 | 0.00 | 0.02 | 0.02 | 93 | 1013.9 |
| 20260906035048 | 56 | 317 | 0.0 | 0.0 | 0.00 | 0.02 | 0.02 | 92 | 1013.9 |
| 20260906034548 | 56 | 307 | 0.0 | 0.0 | 0.00 | 0.02 | 0.02 | 90 | 1014.0 |
| 20260906034037 | 57 | 299 | 0.0 | 0.0 | 0.00 | 0.02 | 0.02 | 89 | 1014.0 |
| 20260906033532 | 58 | 296 | 0.0 | 0.0 | 0.00 | 0.02 | 0.02 | 88 | 1013.8 |
| 20260906033028 | 58 | 311 | 0.0 | 0.0 | 0.00 | 0.02 | 0.02 | 87 | 1013.9 |
| 20260906032524 | 59 | 349 | 0.0 | 0.0 | 0.00 | 0.02 | 0.02 | 86 | 1013.9 |
| 20260906032024 | 59 | 224 | 0.0 | 0.0 | 0.00 | 0.02 | 0.02 | 86 | 1013.7 |
| 20260906031520 | 59 | 300 | 0.0 | 0.0 | 0.00 | 0.02 | 0.02 | 85 | 1013.7 |
| 20260906031010 | 60 | 349 | 0.0 | 0.0 | 0.00 | 0.02 | 0.02 | 84 | 1013.8 |
| 20260906030509 | 60 | 343 | 0.0 | 0.0 | 0.00 | 0.02 | 0.02 | 83 | 1013.8 |
| 20260906030009 | 61 | 321 | 0.0 | 0.0 | 0.00 | 0.02 | 0.02 | 83 | 1013.8 |
| 20260906025508 | 61 | 340 | 0.0 | 0.9 | 0.00 | 0.02 | 0.02 | 82 | 1013.6 |
| 20260906025006 | 61 | 314 | 0.0 | 0.9 | 0.00 | 0.02 | 0.02 | 82 | 1013.4 |
| 20260906024501 | 61 | 14 | 0.0 | 0.9 | 0.00 | 0.02 | 0.02 | 83 | 1013.9 |
| 20260906023956 | 61 | 14 | 0.9 | 0.9 | 0.00 | 0.02 | 0.02 | 82 | 1013.5 |
| 20260906023452 | 61 | 349 | 0.0 | 0.9 | 0.00 | 0.02 | 0.02 | 82 | 1013.7 |
| 20260906022947 | 61 | 0 | 1.7 | 1.7 | 0.00 | 0.02 | 0.02 | 83 | 1013.5 |
| 20260906022443 | 61 | 317 | 0.0 | 0.0 | 0.00 | 0.02 | 0.02 | 84 | 1013.5 |
| 20260906021937 | 60 | 8 | 0.9 | 0.9 | 0.00 | 0.02 | 0.02 | 85 | 1013.5 |
| 20260906021432 | 60 | 336 | 0.0 | 0.0 | 0.00 | 0.02 | 0.02 | 85 | 1013.5 |
| 20260906020926 | 60 | 310 | 0.0 | 0.0 | 0.00 | 0.02 | 0.02 | 86 | 1013.4 |
| 20260906020421 | 60 | 317 | 0.0 | 0.0 | 0.00 | 0.02 | 0.02 | 87 | 1013.6 |
| 20260906015915 | 60 | 348 | 0.0 | 0.0 | 0.00 | 0.02 | 0.02 | 87 | 1013.2 |
| 20260906015415 | 60 | 346 | 0.0 | 0.0 | 0.00 | 0.02 | 0.02 | 86 | 1013.5 |
| 20260906014909 | 60 | 27 | 0.9 | 0.9 | 0.00 | 0.02 | 0.02 | 87 | 1013.5 |
| 20260906014408 | 59 | 306 | 0.9 | 1.7 | 0.00 | 0.02 | 0.02 | 89 | 1013.4 |
| 20260906013905 | 59 | 322 | 0.0 | 0.0 | 0.00 | 0.02 | 0.02 | 91 | 1013.7 |
| 20260906013400 | 58 | 350 | 1.7 | 1.7 | 0.00 | 0.02 | 0.02 | 91 | 1013.4 |
| 20260906012855 | 59 | 323 | 0.0 | 0.0 | 0.00 | 0.02 | 0.02 | 92 | 1013.6 |
| 20260906012350 | 59 | 327 | 0.0 | 0.0 | 0.00 | 0.02 | 0.02 | 91 | 1013.7 |
| 20260906011845 | 58 | 328 | 0.0 | 0.0 | 0.00 | 0.02 | 0.02 | 92 | 1013.4 |
| 20260906011339 | 57 | 329 | 0.0 | 0.0 | 0.00 | 0.02 | 0.02 | 93 | 1013.3 |
| 20260906010835 | 57 | 316 | 0.0 | 0.0 | 0.00 | 0.02 | 0.02 | 96 | 1013.3 |
| 20260906010331 | 57 | 323 | 0.0 | 0.0 | 0.00 | 0.02 | 0.02 | 96 | 1013.3 |
| 20260906005826 | 57 | 320 | 0.0 | 0.0 | 0.00 | 0.02 | 0.02 | 95 | 1013.5 |
| 20260906005325 | 57 | 320 | 0.0 | 0.0 | 0.00 | 0.02 | 0.02 | 94 | 1013.5 |
| 20260906004819 | 58 | 320 | 0.0 | 0.0 | 0.00 | 0.02 | 0.02 | 94 | 1013.4 |
| 20260906004319 | 58 | 321 | 0.0 | 0.0 | 0.00 | 0.02 | 0.02 | 93 | 1013.3 |
| 20260906003814 | 59 | 322 | 0.0 | 0.0 | 0.00 | 0.02 | 0.02 | 92 | 1013.1 |
| 20260906003309 | 59 | 321 | 0.0 | 0.0 | 0.00 | 0.02 | 0.02 | 91 | 1013.1 |
| 20260906002805 | 60 | 322 | 0.0 | 0.0 | 0.00 | 0.02 | 0.02 | 90 | 1013.0 |
| 20260906002306 | 60 | 322 | 0.0 | 0.0 | 0.00 | 0.02 | 0.02 | 89 | 1013.1 |
| 20260906001800 | 61 | 322 | 0.0 | 0.0 | 0.00 | 0.02 | 0.02 | 88 | 1013.2 |
| 20260906001255 | 61 | 322 | 0.0 | 0.0 | 0.00 | 0.02 | 0.02 | 87 | 1013.2 |
| 20260906000749 | 61 | 322 | 0.0 | 0.0 | 0.00 | 0.02 | 0.02 | 86 | 1013.1 |
| 20260906000244 | 62 | 322 | 0.0 | 0.0 | 0.00 | 0.02 | 0.02 | 86 | 1013.0 |
| 20260905235738 | 62 | 324 | 0.0 | 0.0 | 0.00 | 0.02 | 0.02 | 85 | 1013.0 |
| 20260905235233 | 62 | 326 | 0.0 | 0.0 | 0.00 | 0.02 | 0.02 | 85 | 1013.0 |
| 20260905234729 | 62 | 320 | 0.0 | 0.0 | 0.00 | 0.02 | 0.02 | 86 | 1012.7 |
| 20260905234224 | 63 | 320 | 0.0 | 0.0 | 0.00 | 0.02 | 0.02 | 84 | 1012.8 |
| 20260905233719 | 63 | 320 | 0.0 | 0.0 | 0.00 | 0.02 | 0.02 | 83 | 1012.8 |
| 20260905233218 | 63 | 328 | 0.0 | 0.0 | 0.00 | 0.02 | 0.02 | 83 | 1012.9 |
| 20260905232713 | 63 | 329 | 0.0 | 0.0 | 0.00 | 0.02 | 0.02 | 81 | 1012.9 |
| 20260905232209 | 63 | 329 | 0.0 | 0.0 | 0.00 | 0.02 | 0.02 | 81 | 1012.7 |
| 20260905231705 | 63 | 311 | 0.0 | 0.0 | 0.00 | 0.02 | 0.02 | 82 | 1012.5 |
| 20260905231200 | 63 | 311 | 0.0 | 0.0 | 0.00 | 0.02 | 0.02 | 80 | 1012.7 |
| 20260905230656 | 64 | 311 | 0.0 | 0.0 | 0.00 | 0.02 | 0.02 | 79 | 1012.3 |
| 20260905230154 | 64 | 311 | 0.0 | 0.0 | 0.00 | 0.02 | 0.02 | 78 | 1012.4 |
| 20260905225653 | 64 | 347 | 0.9 | 0.9 | 0.00 | 0.02 | 0.02 | 78 | 1012.3 |
| 20260905225148 | 64 | 298 | 0.0 | 0.0 | 0.00 | 0.02 | 0.02 | 81 | 1012.4 |
| 20260905224648 | 64 | 287 | 0.0 | 0.0 | 0.00 | 0.02 | 0.02 | 80 | 1012.6 |
| 20260905224142 | 65 | 292 | 0.0 | 0.0 | 0.00 | 0.02 | 0.02 | 78 | 1012.4 |
| 20260905223639 | 66 | 294 | 0.0 | 0.0 | 0.00 | 0.02 | 0.02 | 75 | 1012.3 |
| 20260905223136 | 67 | 300 | 0.0 | 0.0 | 0.00 | 0.02 | 0.02 | 74 | 1012.2 |
| 20260905222631 | 68 | 294 | 0.0 | 0.0 | 0.00 | 0.02 | 0.02 | 73 | 1012.2 |
| 20260905222126 | 68 | 323 | 0.0 | 0.0 | 0.00 | 0.02 | 0.02 | 73 | 1012.2 |
| 20260905221621 | 68 | 93 | 1.7 | 1.7 | 0.00 | 0.02 | 0.02 | 70 | 1012.2 |
| 20260905221118 | 69 | 298 | 0.0 | 0.0 | 0.00 | 0.02 | 0.02 | 71 | 1012.1 |
| 20260905220613 | 69 | 312 | 0.0 | 0.0 | 0.00 | 0.02 | 0.02 | 71 | 1012.0 |
| 20260905220109 | 69 | 317 | 0.0 | 0.0 | 0.00 | 0.02 | 0.02 | 69 | 1011.7 |
| 20260905215609 | 68 | 316 | 0.0 | 0.0 | 0.00 | 0.02 | 0.02 | 68 | 1011.7 |
| 20260905215105 | 68 | 3 | 0.9 | 0.9 | 0.00 | 0.02 | 0.02 | 68 | 1011.9 |
| 20260905214601 | 68 | 8 | 0.9 | 0.9 | 0.00 | 0.02 | 0.02 | 67 | 1011.9 |
| 20260905214100 | 69 | 325 | 0.9 | 0.9 | 0.00 | 0.02 | 0.02 | 67 | 1011.9 |
| 20260905213556 | 69 | 338 | 0.9 | 0.9 | 0.00 | 0.02 | 0.02 | 66 | 1011.7 |
| 20260905213051 | 69 | 10 | 3.5 | 5.2 | 0.00 | 0.02 | 0.02 | 67 | 1011.7 |
| 20260905212551 | 69 | 346 | 0.9 | 0.9 | 0.00 | 0.02 | 0.02 | 69 | 1011.6 |
| 20260905212045 | 69 | 306 | 0.0 | 0.9 | 0.00 | 0.02 | 0.02 | 69 | 1011.6 |
| 20260905211540 | 69 | 341 | 0.9 | 0.9 | 0.00 | 0.02 | 0.02 | 68 | 1011.6 |
| 20260905211036 | 70 | 18 | 5.2 | 7.0 | 0.00 | 0.02 | 0.02 | 66 | 1011.5 |
| 20260905210531 | 72 | 67 | 2.6 | 2.6 | 0.00 | 0.02 | 0.02 | 64 | 1011.2 |
| 20260905210026 | 72 | 243 | 0.9 | 1.7 | 0.00 | 0.02 | 0.02 | 65 | 1011.2 |
| 20260905205526 | 72 | 357 | 1.7 | 2.6 | 0.00 | 0.02 | 0.02 | 65 | 1011.3 |
| 20260905205025 | 71 | 349 | 0.9 | 1.7 | 0.00 | 0.02 | 0.02 | 66 | 1011.2 |
| 20260905204520 | 71 | 358 | 1.7 | 1.7 | 0.00 | 0.02 | 0.02 | 67 | 1011.2 |
| 20260905204015 | 70 | 59 | 0.0 | 0.9 | 0.00 | 0.02 | 0.02 | 68 | 1011.4 |
| 20260905203510 | 71 | 51 | 3.5 | 5.2 | 0.00 | 0.02 | 0.02 | 68 | 1011.3 |
| 20260905203005 | 71 | 44 | 1.7 | 3.5 | 0.00 | 0.02 | 0.02 | 69 | 1011.1 |
| 20260905202500 | 70 | 300 | 1.7 | 2.6 | 0.00 | 0.02 | 0.02 | 70 | 1011.1 |
| 20260905201955 | 70 | 344 | 1.7 | 3.5 | 0.00 | 0.02 | 0.02 | 70 | 1011.2 |
| 20260905201451 | 70 | 25 | 0.9 | 1.7 | 0.00 | 0.02 | 0.02 | 71 | 1011.3 |
| 20260905200950 | 70 | 309 | 0.0 | 0.9 | 0.00 | 0.02 | 0.02 | 72 | 1011.0 |
| 20260905200446 | 70 | 5 | 1.7 | 1.7 | 0.00 | 0.02 | 0.02 | 70 | 1011.2 |
| 20260905195945 | 70 | 27 | 1.7 | 1.7 | 0.00 | 0.02 | 0.02 | 70 | 1011.1 |
| 20260905195440 | 70 | 29 | 2.6 | 3.5 | 0.00 | 0.02 | 0.02 | 70 | 1011.2 |
| 20260905194936 | 70 | 139 | 0.9 | 1.7 | 0.00 | 0.02 | 0.02 | 71 | 1011.1 |
| 20260905194434 | 70 | 10 | 0.9 | 1.7 | 0.00 | 0.02 | 0.02 | 71 | 1011.2 |
| 20260905193929 | 71 | 53 | 3.5 | 3.5 | 0.00 | 0.02 | 0.02 | 70 | 1011.0 |
| 20260905193424 | 71 | 307 | 0.9 | 1.7 | 0.00 | 0.02 | 0.02 | 69 | 1011.2 |
| 20260905192919 | 71 | 52 | 3.5 | 3.5 | 0.00 | 0.02 | 0.02 | 70 | 1011.0 |
| 20260905192414 | 71 | 18 | 1.7 | 1.7 | 0.00 | 0.02 | 0.02 | 70 | 1010.9 |
| 20260905191915 | 71 | 26 | 2.6 | 2.6 | 0.00 | 0.02 | 0.02 | 70 | 1010.8 |
| 20260905191414 | 71 | 290 | 1.7 | 2.6 | 0.00 | 0.02 | 0.02 | 70 | 1010.9 |
| 20260905190908 | 71 | 27 | 0.9 | 0.9 | 0.00 | 0.02 | 0.02 | 70 | 1010.9 |
| 20260905190400 | 71 | 332 | 2.6 | 3.5 | 0.00 | 0.02 | 0.02 | 69 | 1010.9 |